Fortuna, CA

7:05 PM PST on December 15, 2019 (GMT -0800)
Rohnerville

Weather History for KFOT - November, 2019

Change the Weather History Date:

Saturday, November 16, 2019

  Actual Average (WUND) Record (WUND)
Temperature  
Mean Temperature 52 °F -  
Max Temperature 59 °F - - (-1)
Min Temperature 46 °F - - (-1)
Degree Days  
Heating Degree Days 12    
Growing Degree Days 2 (Base 50)    
Moisture  
Dew Point 51 °F    
Average Humidity 97    
Maximum Humidity 100    
Minimum Humidity 82    
Precipitation  
Precipitation 0.00 in - - ()
Sea Level Pressure  
Sea Level Pressure 30.23 in    
Wind  
Wind Speed 4 mph ()    
Max Wind Speed 13 mph    
Max Gust Speed -    
Visibility 3.2 miles    
Events      
Averages and records for this station are not official NWS values.
T = Trace of Precipitation, MM = Missing Value Source: Averaged Metar Reports

Daily Weather History Graph

Daily Weather History Graph

Search for Another Location

Airport or City:

Astronomy

Nov. 16, 2019 Rise Set
Actual Time 7:03 AM PST 4:58 PM PST
Civil Twilight 6:34 AM PST 5:27 PM PST
Nautical Twilight 6:01 AM PST 6:00 PM PST
Astronomical Twilight 5:29 AM PST 6:32 PM PST
Moon 8:36 PM PST 11:03 AM PST
Length of Visible Light 10h 52m
Length of Day
9h 54m
Waning Gibbous, 81% of the Moon is Illuminated
Nov 16
Waning Gibbous
Nov 19
Last Quarter
Nov 26
New
Dec 3
First Quarter
Dec 11
Full

Hourly Weather History & Observations

Time (PST) Temp. Windchill Dew Point Humidity Pressure Visibility Wind Dir Wind Speed Gust Speed Precip Events Conditions
12:15 AM 53.6 °F - 53.6 °F 100% 30.26 in 0.2 mi West 4.6 mph - N/A   Overcast
12:55 AM 53.6 °F - 53.6 °F 100% 30.25 in 0.5 mi NW 4.6 mph - N/A   Overcast
1:15 AM 53.6 °F - 53.6 °F 100% 30.25 in 0.5 mi NW 3.5 mph - N/A   Overcast
1:35 AM 53.6 °F - 53.6 °F 100% 30.25 in 0.2 mi WNW 4.6 mph - N/A   Overcast
1:55 AM 53.6 °F - 51.8 °F 94% 30.25 in 0.2 mi WNW 4.6 mph - N/A   Overcast
2:15 AM 53.6 °F - 51.8 °F 94% 30.26 in 0.2 mi West 3.5 mph - N/A   Overcast
2:35 AM 51.8 °F - 51.8 °F 100% 30.26 in 0.2 mi WNW 3.5 mph - N/A   Overcast
2:55 AM 51.8 °F - 51.8 °F 100% 30.26 in 1.8 mi WNW 5.8 mph - N/A   Overcast
3:15 AM 53.6 °F - 51.8 °F 94% 30.25 in 0.2 mi West 3.5 mph - N/A   Overcast
3:35 AM 51.8 °F - 51.8 °F 100% 30.25 in 0.2 mi West 5.8 mph - N/A   Overcast
3:55 AM 51.8 °F - 51.8 °F 100% 30.24 in 0.2 mi West 4.6 mph - N/A   Overcast
4:15 AM 51.8 °F - 51.8 °F 100% 30.24 in 0.2 mi West 3.5 mph - N/A   Overcast
4:35 AM 51.8 °F - 51.8 °F 100% 30.23 in 0.2 mi WNW 3.5 mph - N/A   Overcast
4:55 AM 51.8 °F - 51.8 °F 100% 30.24 in 0.2 mi Calm Calm - N/A   Overcast
5:15 AM 51.8 °F - 51.8 °F 100% 30.24 in 0.2 mi NW 3.5 mph - N/A   Overcast
5:35 AM 51.8 °F - 51.8 °F 100% 30.25 in 0.2 mi WNW 3.5 mph - N/A   Overcast
5:55 AM 51.8 °F - 51.8 °F 100% 30.25 in 0.2 mi WNW 3.5 mph - N/A   Overcast
6:15 AM 51.8 °F - 51.8 °F 100% 30.25 in 0.2 mi WNW 5.8 mph - N/A   Overcast
6:35 AM 51.8 °F - 50.0 °F 94% 30.25 in 0.2 mi NW 5.8 mph - N/A   Overcast
6:55 AM 50.0 °F - 50.0 °F 100% 30.25 in 0.2 mi WNW 5.8 mph - N/A   Overcast
7:15 AM 50.0 °F - 50.0 °F 100% 30.26 in 0.2 mi WNW 5.8 mph - N/A   Overcast
7:35 AM 50.0 °F - 50.0 °F 100% 30.25 in 0.2 mi Calm Calm - N/A   Overcast
7:55 AM 50.0 °F - 50.0 °F 100% 30.25 in 0.2 mi Calm Calm - N/A   Overcast
8:15 AM 50.0 °F - 50.0 °F 100% 30.25 in 0.2 mi Calm Calm - N/A   Overcast
8:35 AM 50.0 °F - 50.0 °F 100% 30.25 in 0.8 mi ESE 4.6 mph - N/A   Overcast
8:55 AM 50.0 °F - 50.0 °F 100% 30.25 in 7.0 mi East 4.6 mph - N/A   Overcast
9:15 AM 51.8 °F - 51.8 °F 100% 30.26 in 6.0 mi ENE 3.5 mph - N/A   Overcast
9:35 AM 51.8 °F - 51.8 °F 100% 30.25 in 10.0 mi ESE 3.5 mph - N/A   Overcast
9:55 AM 53.6 °F - 53.6 °F 100% 30.25 in 10.0 mi SSE 3.5 mph - N/A   Overcast
10:15 AM 53.6 °F - 53.6 °F 100% 30.25 in 10.0 mi Calm Calm - N/A   Overcast
10:35 AM 53.6 °F - 53.6 °F 100% 30.25 in 10.0 mi Calm Calm - N/A   Overcast
10:55 AM 53.6 °F - 51.8 °F 94% 30.24 in 10.0 mi Calm Calm - N/A   Overcast
11:15 AM 55.4 °F - 53.6 °F 94% 30.23 in 10.0 mi Calm Calm - N/A   Mostly Cloudy
11:35 AM 55.4 °F - 53.6 °F 94% 30.23 in 10.0 mi Calm Calm - N/A   Mostly Cloudy
11:55 AM 57.2 °F - 53.6 °F 88% 30.22 in 10.0 mi WNW 3.5 mph - N/A   Mostly Cloudy
12:15 PM 57.2 °F - 53.6 °F 88% 30.22 in 10.0 mi WNW 8.1 mph - N/A   Mostly Cloudy
12:35 PM 57.2 °F - 53.6 °F 88% 30.22 in 10.0 mi WNW 8.1 mph - N/A   Partly Cloudy
12:55 PM 57.2 °F - 53.6 °F 88% 30.22 in 10.0 mi WNW 8.1 mph - N/A   Mostly Cloudy
1:15 PM 57.2 °F - 53.6 °F 88% 30.21 in 10.0 mi WNW 8.1 mph - N/A   Scattered Clouds
1:35 PM 59.0 °F - 53.6 °F 82% 30.20 in 10.0 mi WNW 5.8 mph - N/A   Clear
1:55 PM 59.0 °F - 53.6 °F 82% 30.20 in 10.0 mi WNW 9.2 mph - N/A   Clear
2:15 PM 57.2 °F - 53.6 °F 88% 30.19 in 10.0 mi WNW 12.7 mph - N/A   Clear
2:35 PM 55.4 °F - 53.6 °F 94% 30.18 in 7.0 mi WNW 10.4 mph - N/A   Partly Cloudy
2:55 PM 55.4 °F - 53.6 °F 94% 30.18 in 8.0 mi WNW 11.5 mph - N/A   Clear
3:15 PM 55.4 °F - 53.6 °F 94% 30.18 in 9.0 mi NW 11.5 mph - N/A   Partly Cloudy
3:55 PM 53.6 °F - 51.8 °F 94% 30.19 in 8.0 mi NW 9.2 mph - N/A   Clear
4:10 PM 51.8 °F - 50.0 °F 94% 30.19 in 4.0 mi WNW 10.4 mph - N/A   Mostly Cloudy
4:30 PM 50.0 °F - 50.0 °F 100% 30.19 in 0.5 mi WNW 11.5 mph - N/A   Overcast
4:50 PM 50.0 °F - 50.0 °F 100% 30.20 in 0.2 mi WNW 10.4 mph - N/A   Overcast
5:30 PM 48.2 °F - 48.2 °F 100% 30.21 in 0.2 mi NW 9.2 mph - N/A   Overcast
6:10 PM 48.2 °F - 48.2 °F 100% 30.23 in 0.2 mi NW 5.8 mph - N/A   Overcast
6:30 PM 48.2 °F - 48.2 °F 100% 30.23 in 0.2 mi NW 4.6 mph - N/A   Overcast
6:50 PM 48.2 °F - 48.2 °F 100% 30.23 in 0.2 mi NW 4.6 mph - N/A   Overcast
7:10 PM 48.2 °F - 48.2 °F 100% 30.23 in 1.0 mi Calm Calm - N/A   Overcast
7:55 PM 48.2 °F - 48.2 °F 100% 30.21 in 0.5 mi ESE 5.8 mph - N/A   Overcast
8:15 PM 48.2 °F - 48.2 °F 100% 30.20 in 0.5 mi ESE 6.9 mph - N/A   Overcast
8:35 PM 48.2 °F - 48.2 °F 100% 30.21 in 0.5 mi ESE 6.9 mph - N/A   Overcast
8:55 PM 48.2 °F - 48.2 °F 100% 30.21 in 0.5 mi East 5.8 mph - N/A   Overcast
9:15 PM 48.2 °F - 48.2 °F 100% 30.22 in 0.2 mi Calm Calm - N/A   Overcast
9:35 PM 48.2 °F - 48.2 °F 100% 30.22 in 0.2 mi Calm Calm - N/A   Overcast
9:55 PM 46.4 °F 45.2 °F 46.4 °F 100% 30.22 in 0.2 mi East 3.5 mph - N/A   Overcast
10:15 PM 48.2 °F - 48.2 °F 100% 30.22 in 0.2 mi ESE 5.8 mph - N/A   Overcast
10:35 PM 48.2 °F - 48.2 °F 100% 30.22 in 0.2 mi SE 3.5 mph - N/A   Overcast
10:55 PM 48.2 °F - 48.2 °F 100% 30.22 in 0.2 mi SE 3.5 mph - N/A   Overcast
11:15 PM 48.2 °F - 48.2 °F 100% 30.21 in 0.2 mi SE 5.8 mph - N/A   Overcast
11:35 PM 48.2 °F - 48.2 °F 100% 30.21 in 0.2 mi SE 4.6 mph - N/A   Overcast
11:55 PM 48.2 °F - 48.2 °F 100% 30.20 in 0.2 mi SE 6.9 mph - N/A   Overcast